IU2DXM Weather Reports


Display with metric or nautical units.
time (UTC)temp
F
wind
direction
speed
MPH
gust
MPH
rain 1hr
in
rain 24hr
in
rain mn
in
humidity
%
barometer
mb
20260506062136 57 90 97.0 97.0 0.00 0.00 0.00
20260506061036 57 135 97.0 97.0 0.00 0.00 0.00
20260506051015 56 90 97.0 97.0 0.00 0.00 0.00
20260506045015 56 90 97.0 97.0 0.00 0.00 0.00
20260506044015 57 68 97.0 97.0 0.00 0.00 0.00
20260506043018 57 45 97.0 97.0 0.00 0.00 0.00
20260506042038 57 45 97.0 97.0 0.00 0.00 0.00
20260506041017 57 45 97.0 97.0 0.00 0.00 0.00
20260506040037 57 45 97.0 97.0 0.00 0.00 0.00
20260506035017 57 45 97.0 97.0 0.00 0.00 0.00
20260506034017 57 113 97.0 97.0 0.00 0.00 0.00
20260506033017 57 113 97.0 97.0 0.00 0.00 0.00
20260506032017 57 113 97.0 97.0 0.00 0.00 0.00
20260506031037 57 113 97.0 97.0 0.00 0.00 0.00
20260506030037 57 90 97.0 97.0 0.00 0.00 0.00
20260506025017 57 90 97.0 97.0 0.00 0.00 0.00
20260506024017 57 90 97.0 97.0 0.00 0.00 0.00
20260506023018 57 90 97.0 97.0 0.00 0.00 0.00
20260506022018 57 90 97.0 97.0 0.00 0.00 0.00
20260506021017 57 90 97.0 97.0 0.00 0.00 0.00
20260506020017 57 90 97.0 97.0 0.00 0.00 0.00
20260506015017 57 90 97.0 97.0 0.00 0.00 0.00
20260506014018 57 90 97.0 97.0 0.00 0.00 0.00
20260506013038 57 90 97.0 97.0 0.00 0.00 0.00
20260506012017 57 113 97.0 97.0 0.00 0.00 0.00
20260506011017 57 113 97.0 97.0 0.00 0.00 0.00
20260506010039 57 90 97.0 97.0 0.00 0.00 0.00
20260506005017 57 90 97.0 97.0 0.00 0.00 0.00
20260506004017 57 90 97.0 97.0 0.00 0.00 0.00
20260506003037 57 90 97.0 97.0 0.00 0.00 0.00
20260506002037 57 90 97.0 97.0 0.00 0.00 0.00
20260506001017 57 90 97.0 97.0 0.00 0.00 0.00
20260506000016 57 90 97.0 97.0 0.00 0.00 0.00
20260505235017 57 90 97.0 97.0 0.00 0.00 0.00
20260505234037 57 90 97.0 97.0 0.00 0.00 0.00
20260505233016 57 90 97.0 97.0 0.00 0.00 0.00
20260505232036 57 90 97.0 97.0 0.00 0.00 0.00
20260505231037 57 113 97.0 97.0 0.00 0.00 0.00
20260505230017 57 113 97.0 97.0 0.00 0.00 0.00
20260505225019 57 113 97.0 97.0 0.00 0.00 0.00
20260505224017 57 113 97.0 97.0 0.00 0.00 0.00
20260505223016 58 113 97.0 97.0 0.00 0.00 0.00
20260505222016 58 113 97.0 97.0 0.00 0.00 0.00
20260505221017 58 113 97.0 97.0 0.00 0.00 0.00
20260505220017 58 113 97.0 97.0 0.00 0.00 0.00
20260505215016 59 113 97.0 97.0 0.00 0.00 0.00
20260505214016 59 90 97.0 97.0 0.00 0.00 0.00
20260505213016 59 90 97.0 97.0 0.00 0.00 0.00
20260505212016 59 90 97.0 97.0 0.00 0.00 0.00
20260505211016 60 90 89.0 97.0 0.00 0.00 0.00
20260505210036 60 90 14.0 97.0 0.00 0.00 0.00
20260505205016 60 90 45.0 97.0 0.00 0.00 0.00
20260505204016 60 90 13.0 94.0 0.00 0.00 0.00
20260505203016 60 90 57.0 97.0 0.00 0.00 0.00
20260505202016 60 90 8.0 69.0 0.00 0.00 0.00
20260505201037 60 90 72.0 97.0 0.00 0.00 0.00
20260505200036 61 90 1.0 19.0 0.00 0.00 0.00
20260505195015 61 0.0 0.0 0.00 0.00 0.00
20260505194015 61 90 1.0 31.0 0.00 0.00 0.00
20260505193015 61 0.0 0.0 0.00 0.00 0.00
20260505192016 61 0.0 0.0 0.00 0.00 0.00
20260505191056 61 0.0 0.0 0.00 0.00 0.00
20260505190016 61 0.0 0.0 0.00 0.00 0.00
20260505185016 61 0.0 0.0 0.00 0.00 0.00
20260505184015 61 0.0 0.0 0.00 0.00 0.00
20260505183015 61 0.0 0.0 0.00 0.00 0.00
20260505182017 61 0.0 0.0 0.00 0.00 0.00
20260505181100 61 0.0 0.0 0.00 0.00 0.00
20260505180017 61 0.0 0.0 0.00 0.00 0.00
20260505175039 62 0.0 0.0 0.00 0.00 0.00
20260505174038 62 0.0 0.0 0.00 0.00 0.00
20260505173018 62 0.0 0.0 0.00 0.00 0.00
20260505172017 61 0.0 0.0 0.00 0.00 0.00
20260505171017 61 0.0 0.0 0.00 0.00 0.00
20260505170017 61 0.0 0.0 0.00 0.00 0.00
20260505165017 62 0.0 0.0 0.00 0.00 0.00
20260505164017 62 0.0 0.0 0.00 0.00 0.00
20260505163017 62 0.0 0.0 0.00 0.00 0.00
20260505162018 61 0.0 0.0 0.00 0.00 0.00
20260505161017 61 0.0 0.0 0.00 0.00 0.00
20260505153016 61 0.0 0.0 0.00 0.00 0.00
20260505152016 61 0.0 0.0 0.00 0.00 0.00
20260505151016 61 0.0 0.0 0.00 0.00 0.00
20260505125036 61 0.0 0.0 0.00 0.00 0.00
20260505124015 61 0.0 0.0 0.00 0.00 0.00
20260505123015 61 0.0 0.0 0.00 0.00 0.00
20260505122015 61 0.0 0.0 0.00 0.00 0.00
20260505121016 61 0.0 0.0 0.00 0.00 0.00
20260505120016 62 0.0 0.0 0.00 0.00 0.00
20260505115015 62 0.0 0.0 0.00 0.00 0.00
20260505114015 62 0.0 0.0 0.00 0.00 0.00
20260505113017 61 0.0 0.0 0.00 0.00 0.00
20260505092517 57 338 97.0 97.0 0.00 0.00 0.00
20260505091537 57 338 97.0 97.0 0.00 0.00 0.00
20260505090516 57 338 97.0 97.0 0.00 0.00 0.00
20260505085536 56 338 97.0 97.0 0.00 0.00 0.00
20260505084516 56 338 97.0 97.0 0.00 0.00 0.00
20260505083557 56 338 97.0 97.0 0.00 0.00 0.00
20260505082516 56 338 97.0 97.0 0.00 0.00 0.00
20260505081017 56 338 97.0 97.0 0.00 0.00 0.00
20260505080017 56 338 97.0 97.0 0.00 0.00 0.00
20260505075016 55 338 97.0 97.0 0.00 0.00 0.00
20260505074017 56 315 97.0 97.0 0.00 0.00 0.00
20260505073036 56 0 97.0 97.0 0.00 0.00 0.00
20260505072016 56 0 97.0 97.0 0.00 0.00 0.00
20260505071016 56 0 97.0 97.0 0.00 0.00 0.00
20260505070036 56 0 97.0 97.0 0.00 0.00 0.00